| time (UTC) | temp F | wind direction | speed knots | gust knots | rain 1hr in | rain 24hr in | rain mn in | humidity % | barometer mb |
| 20260507151515 | 61 | 338 | 0.9 | 1.7 | 0.00 | 0.00 | 0.00 | 94 | 1016.1 |
| 20260507151016 | 61 | 338 | 0.9 | 2.6 | 0.00 | 0.00 | 0.00 | 95 | 1016.0 |
| 20260507150515 | 61 | 338 | 0.9 | 2.6 | 0.00 | 0.00 | 0.00 | 95 | 1016.0 |
| 20260507150016 | 60 | 338 | 1.7 | 3.5 | 0.00 | 0.00 | 0.00 | 95 | 1016.0 |
| 20260507145516 | 60 | 338 | 1.7 | 3.5 | 0.00 | 0.00 | 0.00 | 95 | 1016.0 |
| 20260507145016 | 60 | 315 | 0.9 | 2.6 | 0.00 | 0.00 | 0.00 | 96 | 1015.9 |
| 20260507144515 | 60 | 315 | 0.9 | 2.6 | 0.00 | 0.00 | 0.00 | 96 | 1015.9 |
| 20260507144016 | 60 | 315 | 0.9 | 1.7 | 0.00 | 0.00 | 0.00 | 96 | 1015.9 |
| 20260507143535 | 60 | 0.0 | 0.9 | 0.00 | 0.00 | 0.00 | 96 | 1015.9 | |
| 20260507143015 | 60 | 0.0 | 0.0 | 0.00 | 0.00 | 0.00 | 96 | 1015.8 | |
| 20260507142516 | 59 | 0.0 | 0.9 | 0.00 | 0.00 | 0.00 | 96 | 1015.7 | |
| 20260507142036 | 59 | 0.0 | 0.0 | 0.00 | 0.00 | 0.00 | 96 | 1015.7 | |
| 20260507141516 | 59 | 0.0 | 0.9 | 0.00 | 0.00 | 0.00 | 96 | 1015.6 | |
| 20260507141015 | 59 | 0.0 | 0.9 | 0.00 | 0.00 | 0.00 | 96 | 1015.7 | |
| 20260507140535 | 58 | 0.0 | 0.9 | 0.00 | 0.00 | 0.00 | 96 | 1015.7 | |
| 20260507140015 | 58 | 0.0 | 1.7 | 0.00 | 0.00 | 0.00 | 96 | 1015.6 | |
| 20260507135516 | 58 | 0.0 | 0.0 | 0.00 | 0.00 | 0.00 | 96 | 1015.5 | |
| 20260507135015 | 58 | 0.0 | 0.0 | 0.00 | 0.00 | 0.00 | 96 | 1015.5 | |
| 20260507134515 | 58 | 0.0 | 0.0 | 0.00 | 0.00 | 0.00 | 96 | 1015.5 | |
| 20260507134016 | 58 | 0.0 | 0.0 | 0.00 | 0.00 | 0.00 | 95 | 1015.5 | |
| 20260507133516 | 58 | 0.0 | 1.7 | 0.00 | 0.00 | 0.00 | 95 | 1015.4 | |
| 20260507133015 | 57 | 315 | 0.9 | 1.7 | 0.00 | 0.00 | 0.00 | 96 | 1015.4 |
| 20260507132515 | 57 | 315 | 0.9 | 1.7 | 0.00 | 0.00 | 0.00 | 96 | 1015.4 |
| 20260507132016 | 57 | 0.0 | 1.7 | 0.00 | 0.00 | 0.00 | 95 | 1015.4 | |
| 20260507131535 | 57 | 0.0 | 0.9 | 0.00 | 0.00 | 0.00 | 95 | 1015.4 | |
| 20260507131015 | 57 | 315 | 0.9 | 2.6 | 0.00 | 0.00 | 0.00 | 96 | 1015.4 |
| 20260507130515 | 57 | 0.0 | 0.0 | 0.00 | 0.00 | 0.00 | 96 | 1015.4 | |
| 20260507130016 | 57 | 315 | 0.9 | 1.7 | 0.00 | 0.00 | 0.00 | 96 | 1015.4 |
| 20260507125516 | 57 | 0.0 | 1.7 | 0.00 | 0.00 | 0.00 | 96 | 1015.3 | |
| 20260507125016 | 56 | 0.0 | 0.0 | 0.00 | 0.00 | 0.00 | 96 | 1015.2 | |
| 20260507124515 | 56 | 0.0 | 0.0 | 0.00 | 0.00 | 0.00 | 95 | 1015.2 | |
| 20260507124016 | 56 | 0.0 | 1.7 | 0.00 | 0.00 | 0.00 | 95 | 1015.2 | |
| 20260507123515 | 56 | 0.0 | 0.9 | 0.00 | 0.00 | 0.00 | 95 | 1015.2 | |
| 20260507123035 | 56 | 0.0 | 0.0 | 0.00 | 0.00 | 0.00 | 95 | 1015.0 | |
| 20260507122515 | 56 | 0.0 | 0.9 | 0.00 | 0.00 | 0.00 | 96 | 1015.1 | |
| 20260507122016 | 56 | 0.0 | 0.9 | 0.00 | 0.00 | 0.00 | 95 | 1015.1 | |
| 20260507121538 | 56 | 315 | 0.9 | 1.7 | 0.00 | 0.00 | 0.00 | 95 | 1015.1 |
| 20260507121017 | 56 | 0.0 | 1.7 | 0.00 | 0.00 | 0.00 | 95 | 1015.1 | |
| 20260507120517 | 56 | 315 | 0.9 | 1.7 | 0.00 | 0.00 | 0.00 | 95 | 1015.1 |
| 20260507120017 | 56 | 315 | 0.9 | 2.6 | 0.00 | 0.00 | 0.00 | 95 | 1015.0 |
| 20260507115517 | 56 | 0.0 | 1.7 | 0.00 | 0.00 | 0.00 | 95 | 1015.0 | |
| 20260507115037 | 56 | 0.0 | 0.0 | 0.00 | 0.00 | 0.00 | 95 | 1015.0 | |
| 20260507114517 | 56 | 0.0 | 0.0 | 0.00 | 0.00 | 0.00 | 95 | 1015.1 | |
| 20260507114037 | 56 | 0.0 | 0.0 | 0.00 | 0.00 | 0.00 | 95 | 1015.1 | |
| 20260507113517 | 56 | 0.0 | 0.0 | 0.00 | 0.00 | 0.00 | 95 | 1015.1 | |
| 20260507113017 | 56 | 0.0 | 0.0 | 0.00 | 0.00 | 0.00 | 94 | 1015.1 | |
| 20260507112517 | 56 | 0.0 | 0.0 | 0.00 | 0.00 | 0.00 | 95 | 1015.0 | |
| 20260507112017 | 56 | 0.0 | 1.7 | 0.00 | 0.00 | 0.00 | 94 | 1015.1 | |
| 20260507111517 | 56 | 0.0 | 0.0 | 0.00 | 0.00 | 0.00 | 95 | 1015.1 | |
| 20260507111037 | 56 | 315 | 0.9 | 1.7 | 0.00 | 0.00 | 0.00 | 95 | 1015.1 |
| 20260507110537 | 56 | 0.0 | 1.7 | 0.00 | 0.00 | 0.00 | 95 | 1015.2 | |
| 20260507110017 | 56 | 315 | 0.9 | 1.7 | 0.00 | 0.00 | 0.00 | 95 | 1015.2 |
| 20260507105537 | 56 | 0.0 | 0.0 | 0.00 | 0.00 | 0.00 | 95 | 1015.2 | |
| 20260507105017 | 56 | 0.0 | 0.0 | 0.00 | 0.00 | 0.00 | 95 | 1015.2 | |
| 20260507104537 | 56 | 0.0 | 0.0 | 0.00 | 0.00 | 0.00 | 94 | 1015.3 | |
| 20260507104017 | 56 | 0.0 | 0.0 | 0.00 | 0.00 | 0.00 | 94 | 1015.3 | |
| 20260507103517 | 56 | 0.0 | 0.0 | 0.00 | 0.00 | 0.00 | 94 | 1015.3 | |
| 20260507103017 | 56 | 0.0 | 0.0 | 0.00 | 0.00 | 0.00 | 94 | 1015.3 | |
| 20260507102557 | 56 | 0.0 | 0.0 | 0.00 | 0.00 | 0.00 | 94 | 1015.3 | |
| 20260507102017 | 56 | 0.0 | 0.0 | 0.00 | 0.00 | 0.00 | 95 | 1015.5 | |
| 20260507101537 | 56 | 0.0 | 0.0 | 0.00 | 0.00 | 0.00 | 95 | 1015.4 | |
| 20260507101017 | 56 | 0.0 | 0.0 | 0.00 | 0.00 | 0.00 | 95 | 1015.4 | |
| 20260507100517 | 56 | 0.0 | 0.0 | 0.00 | 0.00 | 0.00 | 95 | 1015.4 | |
| 20260507100017 | 56 | 0.0 | 0.0 | 0.00 | 0.00 | 0.00 | 94 | 1015.5 | |
| 20260507095517 | 56 | 0.0 | 0.9 | 0.00 | 0.00 | 0.00 | 94 | 1015.6 | |
| 20260507095017 | 56 | 0.0 | 0.9 | 0.00 | 0.00 | 0.00 | 94 | 1015.7 | |
| 20260507094517 | 56 | 0.0 | 0.9 | 0.00 | 0.00 | 0.00 | 94 | 1015.7 | |
| 20260507094017 | 56 | 0.0 | 0.0 | 0.00 | 0.00 | 0.00 | 94 | 1015.7 | |
| 20260507093517 | 56 | 0.0 | 1.7 | 0.00 | 0.00 | 0.00 | 94 | 1015.7 | |
| 20260507093017 | 56 | 0.0 | 0.0 | 0.00 | 0.00 | 0.00 | 94 | 1015.8 | |
| 20260507092517 | 56 | 0.0 | 0.9 | 0.00 | 0.00 | 0.00 | 94 | 1015.8 | |
| 20260507092017 | 56 | 0.0 | 0.9 | 0.00 | 0.00 | 0.00 | 93 | 1015.8 | |
| 20260507091517 | 56 | 0.0 | 0.0 | 0.00 | 0.00 | 0.00 | 93 | 1015.8 | |
| 20260507091017 | 56 | 0.0 | 0.9 | 0.00 | 0.00 | 0.00 | 94 | 1015.9 | |
| 20260507090517 | 56 | 0.0 | 0.0 | 0.00 | 0.00 | 0.00 | 94 | 1015.9 | |
| 20260507090017 | 56 | 0.0 | 1.7 | 0.00 | 0.00 | 0.00 | 94 | 1016.0 | |
| 20260507085517 | 56 | 0.0 | 0.0 | 0.00 | 0.00 | 0.00 | 93 | 1016.0 | |
| 20260507085017 | 56 | 0.0 | 0.0 | 0.00 | 0.00 | 0.00 | 93 | 1016.2 | |
| 20260507084537 | 56 | 0.0 | 0.0 | 0.00 | 0.00 | 0.00 | 93 | 1016.2 | |
| 20260507084057 | 56 | 0.0 | 0.0 | 0.00 | 0.00 | 0.00 | 94 | 1016.1 | |
| 20260507083537 | 56 | 0.0 | 0.0 | 0.00 | 0.00 | 0.00 | 92 | 1016.3 | |
| 20260507083017 | 57 | 0.0 | 1.7 | 0.00 | 0.00 | 0.00 | 93 | 1016.2 | |
| 20260507082517 | 57 | 0.0 | 1.7 | 0.00 | 0.00 | 0.00 | 94 | 1016.2 | |
| 20260507082037 | 57 | 315 | 0.9 | 1.7 | 0.00 | 0.00 | 0.00 | 93 | 1016.3 |
| 20260507081517 | 56 | 0.0 | 0.0 | 0.00 | 0.00 | 0.00 | 93 | 1016.4 | |
| 20260507081016 | 56 | 0.0 | 0.0 | 0.00 | 0.00 | 0.00 | 93 | 1016.4 | |
| 20260507080517 | 56 | 0.0 | 0.0 | 0.00 | 0.00 | 0.00 | 92 | 1016.5 | |
| 20260507080017 | 57 | 0.0 | 1.7 | 0.00 | 0.00 | 0.00 | 92 | 1016.5 | |
| 20260507075517 | 57 | 0.0 | 0.0 | 0.00 | 0.00 | 0.00 | 92 | 1016.4 | |
| 20260507075037 | 57 | 315 | 0.9 | 1.7 | 0.00 | 0.00 | 0.00 | 93 | 1016.5 |
| 20260507074517 | 57 | 0.0 | 1.7 | 0.00 | 0.00 | 0.00 | 93 | 1016.5 | |
| 20260507074017 | 57 | 0.0 | 0.0 | 0.00 | 0.00 | 0.00 | 93 | 1016.5 | |
| 20260507073517 | 57 | 0.0 | 0.9 | 0.00 | 0.00 | 0.00 | 92 | 1016.5 | |
| 20260507073017 | 57 | 0.0 | 0.0 | 0.00 | 0.00 | 0.00 | 92 | 1016.5 | |
| 20260507072516 | 57 | 0.0 | 0.0 | 0.00 | 0.00 | 0.00 | 91 | 1016.6 | |
| 20260507072037 | 58 | 0.0 | 0.0 | 0.00 | 0.00 | 0.00 | 91 | 1016.6 | |
| 20260507071517 | 58 | 0.0 | 0.0 | 0.00 | 0.00 | 0.00 | 92 | 1016.6 | |
| 20260507071016 | 58 | 0.0 | 0.0 | 0.00 | 0.00 | 0.00 | 91 | 1016.5 | |
| 20260507070516 | 58 | 0.0 | 0.0 | 0.00 | 0.00 | 0.00 | 92 | 1016.6 | |
| 20260507070016 | 58 | 0.0 | 0.0 | 0.00 | 0.00 | 0.00 | 91 | 1016.6 | |
| 20260507065536 | 58 | 0.0 | 0.0 | 0.00 | 0.00 | 0.00 | 91 | 1016.7 | |
| 20260507065036 | 58 | 0.0 | 0.0 | 0.00 | 0.00 | 0.00 | 91 | 1016.7 | |
| 20260507064516 | 59 | 0.0 | 0.0 | 0.00 | 0.00 | 0.00 | 91 | 1016.7 | |
| 20260507064016 | 59 | 0.0 | 0.0 | 0.00 | 0.00 | 0.00 | 91 | 1016.7 | |
| 20260507063516 | 59 | 0.0 | 0.0 | 0.00 | 0.00 | 0.00 | 91 | 1016.7 | |
| 20260507063016 | 59 | 0.0 | 0.0 | 0.00 | 0.00 | 0.00 | 90 | 1016.8 | |
| 20260507062516 | 59 | 0.0 | 1.7 | 0.00 | 0.00 | 0.00 | 90 | 1016.8 | |
| 20260507062016 | 60 | 315 | 1.7 | 2.6 | 0.00 | 0.00 | 0.00 | 91 | 1016.7 |
| 20260507061516 | 59 | 315 | 0.9 | 2.6 | 0.00 | 0.00 | 0.00 | 91 | 1016.7 |
| 20260507061036 | 60 | 0.0 | 0.9 | 0.00 | 0.00 | 0.00 | 90 | 1016.8 | |
| 20260507060516 | 60 | 0.0 | 0.0 | 0.00 | 0.00 | 0.00 | 90 | 1016.8 | |
| 20260507060016 | 60 | 0.0 | 0.0 | 0.00 | 0.00 | 0.00 | 90 | 1016.8 | |
| 20260507055517 | 60 | 0.0 | 0.0 | 0.00 | 0.00 | 0.00 | 89 | 1016.8 | |
| 20260507055016 | 61 | 0.0 | 0.0 | 0.00 | 0.00 | 0.00 | 90 | 1016.7 | |
| 20260507054516 | 61 | 0.0 | 0.0 | 0.00 | 0.00 | 0.00 | 90 | 1016.7 | |
| 20260507054016 | 61 | 0.0 | 0.0 | 0.00 | 0.00 | 0.00 | 90 | 1016.7 | |
| 20260507053516 | 61 | 0.0 | 0.0 | 0.00 | 0.00 | 0.00 | 90 | 1016.7 | |
| 20260507053016 | 61 | 0.0 | 0.0 | 0.00 | 0.00 | 0.00 | 90 | 1016.7 | |
| 20260507052536 | 61 | 0.0 | 0.9 | 0.00 | 0.00 | 0.00 | 90 | 1016.7 | |
| 20260507052016 | 61 | 315 | 0.9 | 1.7 | 0.00 | 0.00 | 0.00 | 90 | 1016.7 |
| 20260507051516 | 61 | 0.0 | 2.6 | 0.00 | 0.00 | 0.00 | 90 | 1016.7 | |
| 20260507051016 | 61 | 315 | 1.7 | 2.6 | 0.00 | 0.00 | 0.00 | 90 | 1016.7 |
| 20260507050516 | 61 | 315 | 1.7 | 3.5 | 0.00 | 0.00 | 0.00 | 90 | 1016.7 |
| 20260507050016 | 61 | 315 | 2.6 | 3.5 | 0.00 | 0.00 | 0.00 | 90 | 1016.7 |
| 20260507045516 | 61 | 315 | 1.7 | 2.6 | 0.00 | 0.00 | 0.00 | 90 | 1016.7 |
| 20260507045016 | 62 | 315 | 1.7 | 3.5 | 0.00 | 0.00 | 0.00 | 90 | 1016.7 |
| 20260507044536 | 62 | 315 | 1.7 | 2.6 | 0.00 | 0.00 | 0.00 | 90 | 1016.7 |
| 20260507044036 | 62 | 315 | 0.9 | 1.7 | 0.00 | 0.00 | 0.00 | 90 | 1016.6 |
| 20260507043515 | 62 | 0.0 | 1.7 | 0.00 | 0.00 | 0.00 | 89 | 1016.6 | |
| 20260507043016 | 62 | 0.0 | 0.0 | 0.00 | 0.00 | 0.00 | 89 | 1016.6 | |
| 20260507042516 | 62 | 315 | 0.9 | 2.6 | 0.00 | 0.00 | 0.00 | 90 | 1016.5 |
| 20260507042016 | 62 | 315 | 0.9 | 2.6 | 0.00 | 0.00 | 0.00 | 89 | 1016.5 |
| 20260507041516 | 62 | 315 | 0.9 | 2.6 | 0.00 | 0.00 | 0.00 | 89 | 1016.5 |
| 20260507041016 | 62 | 315 | 1.7 | 3.5 | 0.00 | 0.00 | 0.00 | 89 | 1016.5 |
| 20260507040516 | 62 | 315 | 1.7 | 3.5 | 0.00 | 0.00 | 0.00 | 89 | 1016.5 |
| 20260507040016 | 62 | 315 | 2.6 | 3.5 | 0.00 | 0.00 | 0.00 | 89 | 1016.4 |
| 20260507035536 | 62 | 315 | 2.6 | 5.2 | 0.00 | 0.00 | 0.00 | 88 | 1016.4 |
| 20260507035016 | 62 | 270 | 1.7 | 3.5 | 0.00 | 0.00 | 0.00 | 88 | 1016.4 |
| 20260507034536 | 62 | 270 | 0.9 | 1.7 | 0.00 | 0.00 | 0.00 | 88 | 1016.3 |
| 20260507034016 | 62 | 270 | 2.6 | 5.2 | 0.00 | 0.00 | 0.00 | 88 | 1016.3 |
| 20260507033535 | 62 | 293 | 1.7 | 4.3 | 0.00 | 0.00 | 0.00 | 88 | 1016.3 |
| 20260507033036 | 62 | 293 | 1.7 | 3.5 | 0.00 | 0.00 | 0.00 | 87 | 1016.2 |
| 20260507032516 | 62 | 293 | 1.7 | 3.5 | 0.00 | 0.00 | 0.00 | 87 | 1016.1 |
| 20260507032016 | 62 | 293 | 3.5 | 5.2 | 0.00 | 0.00 | 0.00 | 87 | 1016.1 |
| 20260507031515 | 62 | 293 | 2.6 | 4.3 | 0.00 | 0.00 | 0.00 | 86 | 1016.0 |
| 20260507031015 | 62 | 293 | 3.5 | 6.1 | 0.00 | 0.00 | 0.00 | 86 | 1015.9 |
| 20260507030516 | 63 | 293 | 5.2 | 7.0 | 0.00 | 0.00 | 0.00 | 86 | 1015.9 |
| 20260507030015 | 63 | 293 | 3.5 | 7.0 | 0.00 | 0.00 | 0.00 | 86 | 1016.0 |
| 20260507025516 | 63 | 315 | 3.5 | 7.0 | 0.00 | 0.00 | 0.00 | 86 | 1015.9 |
| 20260507025016 | 63 | 293 | 4.3 | 7.0 | 0.00 | 0.00 | 0.00 | 86 | 1015.8 |
| 20260507024515 | 63 | 315 | 5.2 | 7.0 | 0.00 | 0.00 | 0.00 | 85 | 1015.8 |
| 20260507024015 | 63 | 270 | 4.3 | 7.0 | 0.00 | 0.00 | 0.00 | 85 | 1015.8 |
| 20260507023515 | 63 | 293 | 5.2 | 7.8 | 0.00 | 0.00 | 0.00 | 85 | 1015.7 |
| 20260507023016 | 63 | 293 | 5.2 | 8.7 | 0.00 | 0.00 | 0.00 | 85 | 1015.7 |
| 20260507022535 | 64 | 270 | 4.3 | 7.0 | 0.00 | 0.00 | 0.00 | 85 | 1015.7 |
| 20260507022016 | 64 | 338 | 3.5 | 7.8 | 0.00 | 0.00 | 0.00 | 85 | 1015.7 |
| 20260507021516 | 64 | 315 | 7.0 | 10.4 | 0.00 | 0.00 | 0.00 | 83 | 1015.7 |
| 20260507021016 | 64 | 293 | 7.0 | 9.6 | 0.00 | 0.00 | 0.00 | 83 | 1015.6 |
| 20260507020516 | 65 | 315 | 6.1 | 8.7 | 0.00 | 0.00 | 0.00 | 82 | 1015.6 |
| 20260507020036 | 65 | 315 | 4.3 | 7.0 | 0.00 | 0.00 | 0.00 | 83 | 1015.6 |
| 20260507015515 | 65 | 293 | 6.1 | 9.6 | 0.00 | 0.00 | 0.00 | 82 | 1015.5 |
| 20260507015036 | 65 | 293 | 7.8 | 10.4 | 0.00 | 0.00 | 0.00 | 80 | 1015.5 |
| 20260507014535 | 66 | 293 | 6.1 | 8.7 | 0.00 | 0.00 | 0.00 | 79 | 1015.6 |
| 20260507014015 | 67 | 315 | 4.3 | 8.7 | 0.00 | 0.00 | 0.00 | 80 | 1015.6 |
| 20260507013515 | 67 | 315 | 5.2 | 9.6 | 0.00 | 0.00 | 0.00 | 78 | 1015.6 |
| 20260507013015 | 67 | 338 | 4.3 | 7.8 | 0.00 | 0.00 | 0.00 | 80 | 1015.5 |
| 20260507012515 | 67 | 338 | 5.2 | 9.6 | 0.00 | 0.00 | 0.00 | 80 | 1015.5 |
| 20260507012015 | 67 | 270 | 5.2 | 9.6 | 0.00 | 0.00 | 0.00 | 80 | 1015.5 |
| 20260507011515 | 67 | 270 | 7.0 | 9.6 | 0.00 | 0.00 | 0.00 | 79 | 1015.4 |
| 20260507011015 | 67 | 315 | 5.2 | 9.6 | 0.00 | 0.00 | 0.00 | 80 | 1015.5 |
| 20260507010518 | 67 | 270 | 6.1 | 10.4 | 0.00 | 0.00 | 0.00 | 80 | 1015.4 |
| 20260507010017 | 67 | 270 | 7.0 | 9.6 | 0.00 | 0.00 | 0.00 | 80 | 1015.5 |
| 20260507005517 | 67 | 293 | 7.0 | 11.3 | 0.00 | 0.00 | 0.00 | 80 | 1015.5 |
| 20260507005017 | 67 | 293 | 6.1 | 9.6 | 0.00 | 0.00 | 0.00 | 80 | 1015.4 |
| 20260507004517 | 67 | 293 | 7.8 | 11.3 | 0.00 | 0.00 | 0.00 | 80 | 1015.4 |
| 20260507004017 | 67 | 293 | 6.1 | 10.4 | 0.00 | 0.00 | 0.00 | 78 | 1015.5 |
| 20260507003517 | 67 | 293 | 7.0 | 10.4 | 0.00 | 0.00 | 0.00 | 79 | 1015.5 |
| 20260507003017 | 67 | 293 | 7.8 | 13.0 | 0.00 | 0.00 | 0.00 | 78 | 1015.4 |
| 20260507002517 | 67 | 270 | 7.8 | 11.3 | 0.00 | 0.00 | 0.00 | 80 | 1015.4 |
| 20260507002037 | 67 | 270 | 7.8 | 12.2 | 0.00 | 0.00 | 0.00 | 78 | 1015.3 |
| 20260507001517 | 67 | 270 | 7.8 | 11.3 | 0.00 | 0.00 | 0.00 | 77 | 1015.3 |
| 20260507001017 | 67 | 270 | 7.0 | 11.3 | 0.00 | 0.00 | 0.00 | 78 | 1015.3 |
| 20260507000517 | 67 | 293 | 6.1 | 12.2 | 0.00 | 0.00 | 0.00 | 78 | 1015.2 |
| 20260507000017 | 67 | 270 | 7.0 | 11.3 | 0.00 | 0.00 | 0.00 | 78 | 1015.2 |
| 20260506235517 | 67 | 248 | 7.0 | 10.4 | 0.00 | 0.00 | 0.00 | 79 | 1015.2 |
| 20260506235017 | 67 | 248 | 7.8 | 13.9 | 0.00 | 0.00 | 0.00 | 79 | 1015.2 |
| 20260506234517 | 67 | 270 | 8.7 | 13.0 | 0.00 | 0.00 | 0.00 | 76 | 1015.2 |
| 20260506234017 | 67 | 293 | 7.0 | 11.3 | 0.00 | 0.00 | 0.00 | 77 | 1015.2 |
| 20260506233517 | 67 | 270 | 8.7 | 13.9 | 0.00 | 0.00 | 0.00 | 75 | 1015.2 |
| 20260506233017 | 68 | 270 | 9.6 | 13.0 | 0.00 | 0.00 | 0.00 | 76 | 1015.3 |
| 20260506232537 | 69 | 270 | 7.0 | 10.4 | 0.00 | 0.00 | 0.00 | 74 | 1015.4 |
| 20260506232017 | 69 | 293 | 6.1 | 10.4 | 0.00 | 0.00 | 0.00 | 76 | 1015.2 |
| 20260506231517 | 68 | 270 | 7.8 | 11.3 | 0.00 | 0.00 | 0.00 | 75 | 1015.3 |
| 20260506231017 | 67 | 270 | 9.6 | 13.0 | 0.00 | 0.00 | 0.00 | 75 | 1015.4 |
| 20260506230517 | 67 | 270 | 8.7 | 13.0 | 0.00 | 0.00 | 0.00 | 77 | 1015.4 |
| 20260506230017 | 67 | 270 | 10.4 | 14.8 | 0.00 | 0.00 | 0.00 | 76 | 1015.4 |
| 20260506225517 | 68 | 270 | 7.8 | 11.3 | 0.00 | 0.00 | 0.00 | 77 | 1015.5 |
| 20260506225017 | 67 | 270 | 9.6 | 14.8 | 0.00 | 0.00 | 0.00 | 77 | 1015.5 |
| 20260506224517 | 67 | 293 | 7.8 | 12.2 | 0.00 | 0.00 | 0.00 | 78 | 1015.5 |
| 20260506224017 | 67 | 270 | 10.4 | 13.9 | 0.00 | 0.00 | 0.00 | 75 | 1015.6 |
| 20260506223517 | 67 | 270 | 8.7 | 13.9 | 0.00 | 0.00 | 0.00 | 77 | 1015.6 |
| 20260506223017 | 68 | 270 | 8.7 | 13.9 | 0.00 | 0.00 | 0.00 | 76 | 1015.6 |
| 20260506222517 | 68 | 293 | 7.0 | 12.2 | 0.00 | 0.00 | 0.00 | 77 | 1015.6 |
| 20260506222017 | 67 | 293 | 9.6 | 13.9 | 0.00 | 0.00 | 0.00 | 76 | 1015.6 |
| 20260506221517 | 66 | 293 | 10.4 | 13.9 | 0.00 | 0.00 | 0.00 | 77 | 1015.7 |
| 20260506221017 | 67 | 270 | 11.3 | 14.8 | 0.00 | 0.00 | 0.00 | 76 | 1015.7 |
| 20260506220517 | 67 | 270 | 9.6 | 14.8 | 0.00 | 0.00 | 0.00 | 76 | 1015.8 |
| 20260506220037 | 67 | 293 | 9.6 | 13.9 | 0.00 | 0.00 | 0.00 | 77 | 1015.9 |
| 20260506215517 | 67 | 270 | 10.4 | 16.5 | 0.00 | 0.00 | 0.00 | 76 | 1015.9 |
| 20260506215017 | 67 | 270 | 8.7 | 14.8 | 0.00 | 0.00 | 0.00 | 76 | 1016.0 |
| 20260506214517 | 67 | 270 | 9.6 | 13.0 | 0.00 | 0.00 | 0.00 | 75 | 1016.0 |
| 20260506214017 | 67 | 293 | 9.6 | 13.9 | 0.00 | 0.00 | 0.00 | 76 | 1015.9 |
| 20260506213517 | 66 | 270 | 10.4 | 14.8 | 0.00 | 0.00 | 0.00 | 75 | 1015.9 |
| 20260506213017 | 67 | 270 | 10.4 | 15.6 | 0.00 | 0.00 | 0.00 | 75 | 1016.0 |
| 20260506212517 | 67 | 270 | 10.4 | 18.2 | 0.00 | 0.00 | 0.00 | 75 | 1016.0 |
| 20260506212017 | 67 | 270 | 10.4 | 18.2 | 0.00 | 0.00 | 0.00 | 75 | 1016.0 |
| 20260506211517 | 67 | 270 | 10.4 | 16.5 | 0.00 | 0.00 | 0.00 | 75 | 1016.0 |
| 20260506211017 | 68 | 315 | 8.7 | 14.8 | 0.00 | 0.00 | 0.00 | 75 | 1016.0 |
| 20260506210537 | 67 | 293 | 9.6 | 14.8 | 0.00 | 0.00 | 0.00 | 75 | 1016.1 |
| 20260506210017 | 67 | 293 | 10.4 | 15.6 | 0.00 | 0.00 | 0.00 | 75 | 1016.1 |
| 20260506205537 | 67 | 270 | 11.3 | 15.6 | 0.00 | 0.00 | 0.00 | 74 | 1016.2 |
| 20260506205037 | 67 | 270 | 9.6 | 15.6 | 0.00 | 0.00 | 0.00 | 74 | 1016.2 |
| 20260506204516 | 67 | 270 | 10.4 | 15.6 | 0.00 | 0.00 | 0.00 | 73 | 1016.2 |
| 20260506204016 | 67 | 293 | 10.4 | 16.5 | 0.00 | 0.00 | 0.00 | 75 | 1016.2 |
| 20260506203517 | 68 | 270 | 10.4 | 16.5 | 0.00 | 0.00 | 0.00 | 73 | 1016.2 |
| 20260506203017 | 68 | 293 | 8.7 | 13.0 | 0.00 | 0.00 | 0.00 | 75 | 1016.4 |
| 20260506202516 | 67 | 270 | 9.6 | 14.8 | 0.00 | 0.00 | 0.00 | 74 | 1016.4 |
| 20260506202017 | 67 | 270 | 9.6 | 13.0 | 0.00 | 0.00 | 0.00 | 74 | 1016.4 |
| 20260506201517 | 67 | 270 | 8.7 | 13.0 | 0.00 | 0.00 | 0.00 | 73 | 1016.4 |
| 20260506201017 | 67 | 270 | 7.0 | 13.0 | 0.00 | 0.00 | 0.00 | 73 | 1016.5 |
| 20260506200537 | 67 | 293 | 9.6 | 13.9 | 0.00 | 0.00 | 0.00 | 73 | 1016.4 |
| 20260506200017 | 67 | 293 | 7.8 | 11.3 | 0.00 | 0.00 | 0.00 | 74 | 1016.5 |
| 20260506195516 | 67 | 293 | 9.6 | 14.8 | 0.00 | 0.00 | 0.00 | 72 | 1016.6 |
| 20260506195016 | 68 | 270 | 8.7 | 13.0 | 0.00 | 0.00 | 0.00 | 72 | 1016.7 |
| 20260506194536 | 67 | 270 | 8.7 | 13.0 | 0.00 | 0.00 | 0.00 | 75 | 1016.7 |
| 20260506194016 | 66 | 248 | 10.4 | 14.8 | 0.00 | 0.00 | 0.00 | 74 | 1016.8 |
| 20260506193517 | 67 | 270 | 8.7 | 12.2 | 0.00 | 0.00 | 0.00 | 74 | 1016.8 |
| 20260506193017 | 67 | 270 | 7.0 | 12.2 | 0.00 | 0.00 | 0.00 | 74 | 1016.9 |
| 20260506192537 | 66 | 270 | 9.6 | 12.2 | 0.00 | 0.00 | 0.00 | 75 | 1016.8 |
| 20260506192017 | 66 | 248 | 8.7 | 13.0 | 0.00 | 0.00 | 0.00 | 74 | 1016.9 |
| 20260506191516 | 67 | 270 | 7.0 | 13.0 | 0.00 | 0.00 | 0.00 | 74 | 1016.9 |
| 20260506191036 | 66 | 248 | 7.8 | 13.9 | 0.00 | 0.00 | 0.00 | 74 | 1017.0 |
| 20260506190517 | 67 | 270 | 7.0 | 12.2 | 0.00 | 0.00 | 0.00 | 74 | 1017.0 |
| 20260506190018 | 67 | 270 | 6.1 | 10.4 | 0.00 | 0.00 | 0.00 | 73 | 1017.0 |
| 20260506185517 | 67 | 270 | 6.1 | 9.6 | 0.00 | 0.00 | 0.00 | 73 | 1017.1 |
| 20260506185017 | 66 | 293 | 7.0 | 11.3 | 0.00 | 0.00 | 0.00 | 73 | 1017.0 |
| 20260506184516 | 66 | 315 | 7.0 | 9.6 | 0.00 | 0.00 | 0.00 | 74 | 1017.1 |
| 20260506184016 | 66 | 293 | 6.1 | 10.4 | 0.00 | 0.00 | 0.00 | 74 | 1017.2 |
| 20260506183517 | 66 | 248 | 7.0 | 10.4 | 0.00 | 0.00 | 0.00 | 74 | 1017.2 |
| 20260506183016 | 66 | 270 | 7.0 | 12.2 | 0.00 | 0.00 | 0.00 | 74 | 1017.3 |
| 20260506182516 | 66 | 270 | 7.8 | 12.2 | 0.00 | 0.00 | 0.00 | 73 | 1017.2 |
| 20260506182017 | 66 | 270 | 6.1 | 14.8 | 0.00 | 0.00 | 0.00 | 74 | 1017.2 |
| 20260506181516 | 65 | 270 | 7.8 | 14.8 | 0.00 | 0.00 | 0.00 | 75 | 1017.3 |
| 20260506181016 | 65 | 270 | 8.7 | 13.9 | 0.00 | 0.00 | 0.00 | 74 | 1017.3 |
| 20260506180516 | 65 | 248 | 7.8 | 11.3 | 0.00 | 0.00 | 0.00 | 74 | 1017.4 |
| 20260506180016 | 66 | 270 | 6.1 | 10.4 | 0.00 | 0.00 | 0.00 | 73 | 1017.4 |
| 20260506175536 | 67 | 293 | 6.1 | 9.6 | 0.00 | 0.00 | 0.00 | 72 | 1017.4 |
| 20260506175017 | 66 | 293 | 6.1 | 9.6 | 0.00 | 0.00 | 0.00 | 75 | 1017.4 |
| 20260506174536 | 65 | 315 | 5.2 | 8.7 | 0.00 | 0.00 | 0.00 | 76 | 1017.5 |
| 20260506174036 | 65 | 270 | 6.1 | 12.2 | 0.00 | 0.00 | 0.00 | 76 | 1017.5 |
| 20260506173517 | 65 | 248 | 6.1 | 11.3 | 0.00 | 0.00 | 0.00 | 75 | 1017.5 |
| 20260506173036 | 65 | 270 | 6.1 | 9.6 | 0.00 | 0.00 | 0.00 | 76 | 1017.6 |
| 20260506172516 | 65 | 248 | 6.1 | 11.3 | 0.00 | 0.00 | 0.00 | 76 | 1017.7 |
| 20260506172016 | 65 | 248 | 5.2 | 11.3 | 0.00 | 0.00 | 0.00 | 76 | 1017.7 |
| 20260506171516 | 65 | 270 | 6.1 | 11.3 | 0.00 | 0.00 | 0.00 | 76 | 1017.7 |
| 20260506171056 | 65 | 293 | 6.1 | 9.6 | 0.00 | 0.00 | 0.00 | 75 | 1017.7 |
| 20260506170516 | 65 | 270 | 5.2 | 9.6 | 0.00 | 0.00 | 0.00 | 76 | 1017.7 |
| 20260506170016 | 64 | 270 | 6.1 | 9.6 | 0.00 | 0.00 | 0.00 | 77 | 1017.7 |
| 20260506165516 | 64 | 270 | 4.3 | 7.8 | 0.00 | 0.00 | 0.00 | 77 | 1017.7 |
| 20260506165016 | 64 | 270 | 6.1 | 10.4 | 0.00 | 0.00 | 0.00 | 75 | 1017.7 |
| 20260506164536 | 65 | 315 | 4.3 | 9.6 | 0.00 | 0.00 | 0.00 | 74 | 1017.6 |
| 20260506164016 | 65 | 315 | 3.5 | 6.1 | 0.00 | 0.00 | 0.00 | 75 | 1017.7 |
| 20260506163516 | 65 | 293 | 3.5 | 7.0 | 0.00 | 0.00 | 0.00 | 75 | 1017.7 |
| 20260506163016 | 64 | 293 | 1.7 | 5.2 | 0.00 | 0.00 | 0.00 | 76 | 1017.7 |
| 20260506162536 | 64 | 315 | 3.5 | 7.8 | 0.00 | 0.00 | 0.00 | 77 | 1017.7 |
| 20260506162016 | 64 | 0 | 3.5 | 7.0 | 0.00 | 0.00 | 0.00 | 77 | 1017.7 |
| 20260506161516 | 64 | 293 | 4.3 | 9.6 | 0.00 | 0.01 | 0.00 | 75 | 1017.7 |
| 20260506161036 | 65 | 338 | 3.5 | 8.7 | 0.00 | 0.01 | 0.00 | 74 | 1017.7 |
| 20260506160536 | 66 | 0 | 1.7 | 3.5 | 0.00 | 0.01 | 0.00 | 75 | 1017.6 |
| 20260506160016 | 66 | 270 | 0.9 | 2.6 | 0.00 | 0.01 | 0.00 | 73 | 1017.6 |
| 20260506155516 | 66 | 270 | 0.9 | 3.5 | 0.00 | 0.01 | 0.00 | 71 | 1017.6 |
| 20260506155016 | 67 | 203 | 0.9 | 2.6 | 0.00 | 0.01 | 0.00 | 71 | 1017.7 |
| 20260506154536 | 67 | 315 | 0.9 | 3.5 | 0.00 | 0.01 | 0.00 | 72 | 1017.7 |
| 20260506154016 | 67 | 315 | 0.9 | 2.6 | 0.00 | 0.01 | 0.00 | 72 | 1017.7 |
| 20260506153516 | 66 | 315 | 0.9 | 2.6 | 0.00 | 0.01 | 0.00 | 74 | 1017.6 |
| 20260506153016 | 66 | 315 | 0.9 | 3.5 | 0.00 | 0.01 | 0.00 | 74 | 1017.7 |
| 20260506152517 | 66 | 0.0 | 1.7 | 0.00 | 0.01 | 0.00 | 75 | 1017.6 | |
| 20260506152016 | 65 | 203 | 0.9 | 2.6 | 0.00 | 0.01 | 0.00 | 75 | 1017.7 |